Date,TemperatureHighF,TemperatureAvgF,TemperatureLowF,DewpointHighF,DewpointAvgF,DewpointLowF,HumidityHigh,HumidityAvg,HumidityLow,PressureMaxIn,PressureMinIn,WindSpeedMaxMPH,WindSpeedAvgMPH,GustSpeedMaxMPH,PrecipitationSumIn
2013-1-1,52.1,43.1,30.5,42.2,37.9,27.5,94,82,60,30.43,30.37,9,2,9,0.02
2013-1-2,47.2,43.9,41.4,43.1,41.0,38.9,93,89,83,30.52,30.35,19,6,19,0.02
2013-1-3,55.2,46.5,35.6,41.8,39.0,32.0,91,76,56,30.65,30.52,11,2,11,0.00
2013-1-4,53.7,42.3,32.6,42.3,35.5,30.3,95,78,58,30.65,30.51,11,1,11,0.00
2013-1-5,48.4,42.1,34.8,42.7,37.1,29.6,91,82,67,30.51,30.31,15,2,15,0.00
2013-1-6,55.9,46.2,35.5,45.2,37.5,30.4,93,73,55,30.42,30.31,7,2,7,0.00
2013-1-7,38.9,36.0,35.6,34.3,33.2,32.7,92,90,89,30.45,30.44,5,1,5,0.00
2013-1-8,53.3,43.6,33.5,45.8,38.1,29.6,92,81,66,30.50,30.45,8,1,8,0.00
2013-1-9,51.7,44.6,38.9,41.1,38.4,34.4,92,79,64,30.45,30.42,12,1,12,0.00
2013-1-10,44.6,43.8,43.4,42.2,41.6,41.2,93,92,90,30.24,30.22,10,2,10,0.10
2013-1-12,50.6,47.0,41.0,41.5,39.7,36.8,85,76,68,30.39,30.35,8,1,9,0.00
2013-1-13,49.9,45.7,41.3,44.8,42.1,39.0,95,87,74,30.38,30.20,31,7,31,2.04
2013-1-14,48.6,39.9,43.4,45.9,22.6,-99.9,94,76,85,30.23,30.18,33,-141,33,0.52
2013-1-15,47.1,25.7,38.3,39.0,-18.6,-99.9,87,46,57,30.25,30.09,13,-400,17,0.05
2013-1-16,40.5,35.8,33.6,35.4,33.2,31.3,93,90,81,30.03,29.93,18,3,18,1.31
2013-1-17,43.4,35.6,32.0,39.1,32.9,29.8,95,90,74,29.94,29.89,19,4,19,0.37
2013-1-18,39.4,33.7,31.5,32.8,30.3,27.5,95,87,75,30.09,29.88,21,3,21,0.05
2013-1-19,50.4,36.9,30.6,49.3,32.8,24.6,97,85,69,30.15,30.07,35,8,35,0.31
2013-1-20,53.8,51.2,46.1,51.1,48.6,43.8,96,91,81,30.07,29.88,33,11,33,1.32
2013-1-21,49.2,43.9,36.3,45.5,40.8,33.0,95,89,67,30.01,29.87,20,3,20,0.31
2013-1-24,36.8,36.3,35.6,34.7,34.1,33.4,92,92,91,29.98,29.97,10,2,10,0.08
2013-1-25,48.4,39.6,33.4,38.4,33.4,28.7,93,79,61,30.12,29.95,15,3,15,0.00
2013-1-26,44.6,39.6,31.2,34.0,30.5,26.4,84,70,63,30.21,30.11,13,4,13,0.00
2013-1-27,47.1,38.5,29.8,38.5,32.5,27.0,91,79,69,30.34,30.28,9,1,9,0.00
2013-1-28,40.2,38.5,35.0,38.4,35.4,28.0,94,88,72,30.35,30.23,25,8,25,0.68
2013-1-29,50.9,42.9,32.9,43.5,37.2,30.5,95,80,65,30.49,30.36,14,2,14,0.00
2013-1-30,41.4,37.6,32.3,39.9,35.9,30.0,95,93,91,30.50,30.47,6,1,6,0.01
2013-1-31,58.4,52.3,42.7,49.1,45.0,37.4,87,76,64,30.44,30.39,10,2,10,0.00
2013-2-1,59.1,50.2,41.8,48.7,44.6,36.9,92,82,55,30.39,30.13,22,3,22,0.00
2013-2-2,54.7,49.3,42.2,47.8,44.4,36.4,91,83,74,30.13,29.84,33,8,33,0.09
2013-2-3,44.9,39.9,35.5,40.1,34.8,26.8,93,82,67,30.26,29.89,21,5,21,0.26
2013-2-4,49.4,39.8,31.0,36.6,26.2,15.8,91,61,31,30.43,30.26,13,2,13,0.00
2013-2-5,47.4,43.3,32.3,44.7,39.2,26.9,94,85,70,30.42,30.19,20,4,20,0.00
2013-2-6,47.5,42.2,30.8,43.9,36.9,27.0,95,82,56,30.19,30.03,23,3,23,0.24
2013-2-7,39.9,35.8,33.2,37.4,33.1,29.8,95,90,74,30.08,30.02,24,6,24,0.57
2013-2-8,47.1,37.8,31.2,31.8,28.6,26.4,92,71,46,30.20,30.07,16,3,16,0.00
2013-2-9,42.8,34.3,28.7,30.0,24.2,19.3,93,68,47,30.31,30.20,20,2,20,0.00
2013-2-10,31.5,30.6,30.1,23.5,21.8,20.2,76,70,63,30.31,30.31,5,1,5,0.00
2013-2-11,45.3,41.5,39.2,42.8,39.5,37.2,94,92,90,30.08,30.06,30,5,30,2.29
2013-2-12,48.1,39.9,32.0,41.0,36.8,29.7,94,89,73,30.14,30.08,16,2,16,0.28
2013-2-13,47.3,39.8,31.8,37.4,32.7,29.1,95,76,61,30.20,30.12,13,2,13,0.00
2013-2-14,50.2,41.0,34.1,35.5,32.6,27.9,89,73,52,30.32,30.20,11,2,11,0.00
2013-2-15,52.2,39.6,28.9,39.8,32.4,26.3,93,76,57,30.36,30.32,11,1,11,0.00
2013-2-16,51.6,42.3,35.1,38.8,34.6,30.0,92,75,51,30.39,30.33,10,2,10,0.00
2013-2-17,51.4,41.2,35.5,39.9,35.4,31.8,91,80,55,30.37,30.33,11,2,11,0.19
2013-2-18,45.2,39.2,34.9,39.3,34.8,31.1,91,84,75,30.36,30.32,8,2,8,0.00
2013-2-19,50.7,38.8,28.5,36.4,29.9,25.3,90,73,45,30.36,30.31,12,2,12,0.00
2013-2-20,49.2,39.6,28.3,37.2,31.9,24.6,91,75,55,30.37,30.27,16,1,16,0.00
2013-2-21,40.7,36.0,32.7,35.8,31.8,27.8,89,84,78,30.28,30.22,5,2,5,0.00
2013-2-23,49.4,45.9,41.3,47.2,43.1,37.9,93,90,77,30.13,29.99,44,9,44,2.17
2013-2-24,41.7,38.0,32.8,37.9,32.1,28.3,90,80,63,30.28,30.13,16,2,16,0.06
2013-2-25,35.5,33.4,32.0,33.8,31.4,28.4,94,92,85,30.42,30.27,16,3,16,0.71
2013-2-26,47.2,38.3,31.0,37.8,33.6,28.7,92,83,64,30.46,30.42,6,1,6,0.33
2013-2-27,50.8,41.0,30.9,35.2,31.3,27.0,94,70,50,30.49,30.40,15,2,15,0.00
2013-2-28,54.2,42.7,30.6,39.8,34.3,25.9,89,73,56,30.47,30.41,12,2,12,0.00
2013-3-1,50.7,45.4,40.2,37.4,35.6,33.4,84,69,54,30.41,30.25,14,3,14,0.00
2013-3-2,55.2,47.6,39.7,40.9,36.9,31.1,85,67,49,30.33,30.20,11,2,11,0.01
2013-3-3,56.1,45.0,36.2,45.9,39.4,33.3,93,82,57,30.38,30.30,9,1,9,0.01
2013-3-4,58.6,45.5,35.8,45.4,39.9,33.9,96,82,58,30.40,30.31,11,2,11,0.02
2013-3-5,54.4,46.7,34.3,39.2,35.7,28.8,91,66,43,30.41,30.20,27,5,27,0.02
2013-3-6,56.1,52.0,47.5,50.2,42.8,33.0,93,73,44,30.20,30.08,43,13,43,2.45
2013-3-7,56.2,52.7,50.7,52.4,49.9,48.2,94,90,82,30.14,30.09,16,3,16,0.24
2013-3-8,54.0,51.6,49.3,50.9,49.0,47.3,94,91,86,30.13,30.05,27,6,27,0.42
2013-3-9,61.6,52.1,44.9,52.0,47.4,43.5,96,85,59,30.16,30.08,19,3,19,0.03
2013-3-10,58.6,51.0,46.2,48.6,46.1,42.3,95,84,67,30.08,29.97,27,4,27,0.75
2013-3-11,55.7,49.4,42.2,50.0,46.2,40.0,100,89,70,30.04,29.99,17,2,17,0.33
2013-3-12,51.9,44.8,40.8,48.3,42.1,38.6,94,90,78,30.03,29.98,19,2,19,0.89
2013-3-13,46.9,42.4,40.0,44.6,40.2,37.4,94,92,85,30.01,29.83,16,3,16,0.29
2013-3-14,49.9,42.1,35.5,43.7,37.0,30.7,94,83,63,29.88,29.77,24,3,24,0.01
2013-3-15,48.4,39.0,32.7,36.1,30.2,25.0,89,72,45,30.24,29.87,16,2,16,0.00
2013-3-16,47.4,37.8,29.7,35.4,29.7,24.3,86,73,54,30.42,30.24,11,2,11,0.00
2013-3-17,46.2,41.1,34.3,41.5,34.4,29.4,89,77,67,30.41,30.10,44,9,44,0.15
2013-3-18,50.9,47.5,42.2,45.1,43.1,39.3,92,85,78,30.12,30.05,44,19,44,0.28
2013-3-22,59.8,49.2,40.3,44.2,40.4,33.9,92,74,39,30.26,30.24,12,2,12,0.00
2013-3-23,61.1,49.5,38.5,48.8,42.4,30.8,97,78,50,30.26,30.14,10,2,10,0.01
2013-3-24,67.6,55.7,48.9,45.5,39.2,30.5,74,55,34,30.14,29.88,28,7,28,0.00
2013-3-25,54.9,47.8,40.0,49.0,44.0,36.7,94,87,71,29.99,29.80,30,2,30,1.22
2013-3-26,51.7,45.2,37.6,46.6,42.0,33.4,93,88,81,30.05,29.99,16,1,16,0.39
2013-3-27,58.4,48.7,39.7,47.0,43.2,37.8,95,83,56,30.17,30.05,11,1,11,0.01
2013-3-28,56.5,48.3,44.7,51.8,45.6,41.4,95,90,82,30.20,30.15,18,5,18,0.09
2013-3-29,61.7,57.2,54.7,53.5,49.2,46.1,80,75,70,30.16,30.09,15,4,15,0.00
2013-3-30,57.8,53.3,48.7,52.1,48.8,45.7,94,85,69,30.09,29.89,39,10,39,0.19
2013-3-31,54.5,48.4,45.1,50.4,45.8,42.9,96,91,81,30.08,29.90,21,3,21,1.01
2013-4-1,55.4,48.9,44.9,47.2,43.3,39.7,92,81,61,30.12,29.99,35,6,35,0.35
2013-4-2,51.9,48.1,45.2,50.2,46.3,43.4,95,93,92,30.02,29.96,22,3,22,1.25
2013-4-3,58.4,48.1,38.8,46.3,43.1,36.0,95,84,59,30.11,30.02,13,2,13,0.03
2013-4-4,59.5,50.0,39.6,48.3,41.8,35.8,93,75,46,30.13,29.94,33,8,33,0.03
2013-4-5,59.0,50.3,43.0,50.1,46.2,39.9,93,86,51,30.14,29.89,41,4,41,0.03
2013-4-6,61.5,52.3,42.9,52.0,45.8,40.2,92,79,60,30.17,30.07,10,2,10,0.03
2013-4-7,63.7,54.6,44.2,48.7,43.1,34.6,80,66,51,30.07,29.99,17,3,17,0.03
2013-4-8,59.2,48.5,38.9,45.3,37.9,31.3,82,68,40,30.15,30.06,18,3,18,0.03
2013-4-9,59.9,52.9,47.8,48.6,44.5,38.7,92,74,54,30.18,30.12,21,3,21,0.03
2013-4-10,64.1,54.4,47.0,53.2,46.6,38.6,91,76,57,30.20,30.13,17,3,17,0.03
2013-4-11,63.9,53.9,45.3,49.3,44.1,39.3,95,71,50,30.23,30.18,15,3,15,0.03
2013-4-12,64.5,57.0,51.5,53.2,47.2,39.6,85,70,59,30.19,30.13,31,6,31,0.03
2013-4-13,67.9,56.4,45.4,52.6,45.8,39.8,93,70,38,30.32,30.16,15,2,15,0.03
2013-4-14,70.4,58.9,44.1,56.2,46.3,37.9,85,64,48,30.37,30.31,7,1,10,0.03
2013-4-15,71.6,61.0,48.0,51.7,46.6,42.2,81,60,43,30.33,30.21,11,2,11,0.03
2013-4-16,72.2,58.6,45.5,54.8,46.7,40.9,90,67,40,30.25,30.20,10,1,10,0.01
2013-4-17,58.9,57.0,54.3,52.7,49.2,44.6,80,75,68,30.24,30.22,6,1,6,0.03
2013-4-18,55.0,53.4,51.8,48.6,46.6,45.3,84,78,71,30.25,30.24,6,2,6,0.00
2013-5-18,75.0,70.4,65.0,55.0,51.3,48.0,62,51,45,30.00,30.00,18,5,18,0.00
2013-5-19,67.0,59.8,50.0,55.0,50.5,44.0,90,73,51,30.00,29.00,19,3,21,0.00
2013-5-20,66.0,56.8,48.0,50.0,45.5,-99.9,93,70,40,30.00,30.00,6,1,12,0.00
2013-5-22,64.0,59.8,55.0,58.0,54.7,51.0,91,83,77,29.00,29.00,11,3,16,0.00
2013-5-23,57.0,56.4,56.0,51.0,50.4,50.0,82,81,79,29.00,29.00,3,1,7,0.00
2013-5-24,58.0,53.2,47.0,52.0,45.6,-99.9,94,79,63,30.00,29.00,14,3,19,0.00
2013-5-25,59.0,50.3,47.0,46.0,42.7,39.0,82,75,49,30.00,30.00,16,3,22,0.00
2013-5-26,61.0,51.9,44.0,47.0,44.1,40.0,91,76,55,30.00,30.00,10,2,13,0.00
2013-5-28,57.0,34.3,47.0,46.0,-7.2,-99.9,78,71,64,29.00,29.00,2,0,4,0.00
2013-5-29,62.0,45.2,43.0,55.0,22.9,-99.9,94,80,54,30.00,29.00,9,2,15,0.00
2013-5-30,58.0,50.9,45.0,51.0,46.2,42.0,94,84,68,30.00,29.00,12,2,19,0.00
2013-5-31,58.0,54.8,51.0,52.0,48.5,46.0,87,80,68,30.00,30.00,14,3,18,0.00
2013-6-1,60.0,53.7,51.0,54.0,49.2,46.0,93,85,73,30.00,30.00,10,2,13,0.00
2013-6-2,69.0,55.2,50.0,55.0,49.8,48.0,94,83,58,30.00,30.00,6,1,10,0.00
2013-6-10,66.0,64.6,62.0,54.0,52.9,52.0,71,66,65,30.00,30.00,6,2,11,0.00
2013-6-13,58.9,58.5,57.5,49.8,49.5,49.1,74,72,71,30.08,30.07,1,0,1,0.00
2013-6-14,83.3,69.0,54.8,60.1,54.3,48.5,84,62,42,30.13,30.03,13,1,13,0.00
2013-6-15,83.8,69.4,55.7,64.6,58.5,51.7,92,71,46,30.13,30.04,10,1,10,0.00
2013-6-16,84.7,71.3,58.4,66.4,59.1,53.8,89,68,45,30.12,29.97,9,1,9,0.00
2013-6-17,89.0,73.4,57.9,68.7,60.6,52.6,91,67,40,30.10,29.98,10,1,10,0.00
2013-6-18,89.5,78.2,68.2,70.3,64.8,60.0,89,66,41,30.03,29.94,13,2,13,0.00
2013-6-19,91.4,77.5,64.5,67.4,61.9,56.2,84,61,38,30.03,29.93,11,2,11,0.00
2013-6-20,89.3,75.4,62.2,64.9,58.0,-99.9,81,58,35,30.04,29.95,12,2,12,0.00
2013-6-21,82.3,64.9,58.9,61.8,56.0,53.1,86,74,40,30.07,30.02,6,1,6,0.00
2013-6-22,79.7,68.3,57.7,63.2,56.7,51.5,84,68,46,30.10,30.01,9,1,9,0.00
2013-6-23,80.6,67.3,56.8,65.2,59.6,54.8,95,78,50,30.10,30.00,13,1,13,0.00
2013-6-24,70.3,66.4,56.0,59.0,56.4,52.0,88,71,58,30.02,30.00,19,3,19,0.00
2013-6-25,78.0,64.2,53.0,56.0,52.0,47.0,92,68,35,30.00,30.00,9,2,17,0.00
2013-6-26,74.0,61.3,53.0,59.0,52.5,48.0,85,74,45,30.00,30.00,13,2,20,0.00
2013-6-27,76.0,63.5,52.0,57.0,52.3,48.0,89,69,44,30.00,30.00,7,1,13,0.00
2013-6-28,73.5,61.4,52.0,58.2,52.9,-99.9,92,77,52,30.06,30.00,18,3,18,0.03
2013-6-29,75.0,63.3,53.3,56.6,51.0,47.2,90,67,42,30.12,30.05,15,2,15,0.01
2013-6-30,79.2,65.7,54.7,55.0,47.0,-99.9,74,53,34,30.17,30.09,12,2,12,0.00
2013-7-1,80.7,65.6,49.9,58.8,50.1,41.7,80,60,40,30.22,30.11,6,1,9,0.00
2013-7-2,82.8,70.1,54.6,59.8,53.7,45.3,80,58,38,30.18,30.00,13,1,13,0.00
2013-7-3,81.9,68.9,53.3,57.4,52.8,47.8,84,60,36,30.12,30.02,12,2,12,0.00
2013-7-4,78.3,66.8,57.6,62.7,58.0,47.4,94,75,48,30.20,30.03,14,1,14,1.05
2013-7-5,88.6,73.8,58.5,64.6,57.5,50.3,95,60,28,30.14,30.05,12,2,12,0.00
2013-7-6,87.7,72.4,60.0,65.7,56.6,49.2,81,59,33,30.13,30.04,13,1,13,0.04
2013-7-7,85.9,70.3,62.5,66.9,60.6,57.8,89,73,43,30.12,30.04,23,1,23,0.08
2013-7-8,85.8,69.0,60.5,64.5,60.5,56.7,92,77,43,30.14,30.08,19,2,26,0.32
2013-7-9,83.7,66.5,58.4,64.2,59.1,55.9,92,79,46,30.15,30.07,6,1,10,0.06
2013-7-10,83.3,72.0,58.6,68.1,61.8,-99.9,93,73,47,30.08,29.97,12,2,12,0.00
2013-7-11,82.2,68.5,60.5,70.6,62.5,57.6,94,82,51,30.02,29.95,10,1,18,0.00
2013-7-12,83.3,71.9,61.5,67.6,61.9,57.3,93,73,46,30.06,30.01,13,1,13,0.00
2013-7-13,83.8,71.1,57.7,68.0,61.0,54.9,91,72,50,30.08,30.01,12,2,12,0.00
2013-7-14,85.0,71.4,59.3,68.5,62.1,55.9,93,74,47,30.06,29.98,15,2,15,0.00
2013-7-15,83.5,73.3,63.2,68.7,63.5,57.6,92,73,42,30.05,29.99,11,2,11,0.00
2013-7-16,79.5,74.8,62.5,63.3,61.8,56.8,82,65,49,30.08,30.00,4,0,4,0.00
2013-7-17,85.2,74.2,62.3,69.4,62.1,55.9,81,67,46,30.09,29.99,13,2,13,0.00
2013-7-18,84.2,72.5,63.0,69.9,62.8,57.2,89,73,55,30.08,30.00,15,2,15,0.00
2013-7-19,81.8,69.2,62.5,67.7,62.8,58.9,95,81,55,30.08,30.03,16,2,16,0.00
2013-7-20,83.8,71.0,59.1,65.6,61.1,56.4,94,74,45,30.09,29.98,12,1,12,0.00
2013-7-21,86.1,70.0,61.9,70.4,62.0,56.7,94,78,45,30.09,30.00,14,2,14,0.00
2013-7-22,87.5,72.6,58.8,67.9,61.1,54.5,88,69,39,30.12,29.98,12,2,12,0.00
2013-7-23,83.4,72.8,60.5,66.9,59.2,56.5,89,66,41,30.04,30.00,6,1,6,0.00
2013-7-24,83.3,80.0,63.8,62.1,57.9,57.1,87,49,41,30.03,30.00,2,1,4,0.00
2013-7-25,86.5,72.8,59.1,70.8,63.2,54.7,92,74,47,30.08,29.97,11,1,11,0.00
2013-7-26,89.0,76.2,64.9,72.6,65.6,58.5,93,72,48,30.03,29.89,11,1,11,0.00
2013-7-27,93.2,78.6,65.8,70.4,64.3,53.6,88,64,39,29.97,29.88,10,1,10,0.00
2013-7-28,93.2,80.0,65.2,68.8,61.6,52.8,78,55,39,30.01,29.90,9,2,9,0.00
2013-7-29,89.9,79.7,65.2,65.4,61.5,54.0,82,55,35,30.02,29.93,15,2,15,0.00
2013-7-30,87.4,74.9,63.6,67.9,60.2,52.3,94,65,33,30.03,29.92,14,2,14,0.00
2013-7-31,89.4,75.7,64.2,63.5,60.1,54.9,79,61,32,29.99,29.91,12,2,12,0.00
2013-8-1,90.3,76.4,64.9,63.1,56.7,50.0,78,52,34,30.01,29.93,13,2,13,0.00
2013-8-2,89.9,76.9,64.2,65.7,61.0,55.8,80,60,40,30.05,29.96,10,2,10,0.00
2013-8-3,93.3,78.4,63.5,67.9,61.0,55.8,81,57,34,30.03,29.95,3,0,3,0.00
2013-8-4,94.0,76.7,65.6,64.9,61.0,58.7,81,61,33,30.04,29.97,0,0,0,0.00
2013-8-6,79.7,4.4,79.7,66.4,-90.7,-99.9,64,4,64,29.89,29.86,0,-944,0,0.00
2013-8-7,91.9,22.8,71.0,65.8,-53.4,-99.9,59,15,32,29.90,29.82,5,-705,5,0.00
2013-8-8,97.0,63.5,67.9,63.4,24.8,-99.9,62,37,24,29.95,29.83,7,-193,7,0.00
2013-8-9,76.6,40.5,65.7,62.0,-8.8,-99.9,77,37,46,29.91,29.83,9,-411,11,0.00
2013-8-10,80.0,39.5,61.2,58.7,-8.7,-99.9,84,42,45,29.92,29.88,10,-386,10,0.00
2013-8-11,87.8,70.6,50.0,64.4,53.5,-99.9,77,59,41,29.96,29.88,5,-33,10,0.00
2013-8-12,88.7,74.4,62.1,66.7,58.4,52.4,81,59,32,29.98,29.90,12,1,12,0.00
2013-8-13,88.3,63.0,32.0,61.9,48.9,-99.9,77,58,35,30.01,29.91,6,-30,9,0.00
2013-8-14,86.2,73.8,59.9,65.4,58.2,49.9,74,59,43,29.99,29.91,14,2,14,0.00
2013-8-15,88.0,74.8,64.7,65.0,60.7,54.8,86,63,41,30.01,29.94,12,1,12,0.00
2013-8-16,86.4,74.7,63.4,69.6,61.3,54.4,78,64,48,30.04,29.95,11,2,11,0.00
2013-8-17,88.5,73.8,61.5,62.2,57.6,52.3,79,59,36,30.02,29.95,11,2,11,0.00
2013-8-18,87.9,72.5,58.9,64.5,56.8,50.4,80,60,35,30.08,29.99,14,1,14,0.00
2013-8-19,88.5,72.2,58.9,65.8,60.2,53.5,91,69,36,30.05,29.96,13,1,13,0.00
2013-8-20,80.3,68.1,60.6,66.3,60.9,57.3,93,79,52,30.02,29.97,18,1,18,0.06
2013-8-21,85.5,71.3,61.7,61.6,58.1,54.2,88,65,41,30.05,29.99,12,2,12,0.08
2013-8-22,85.2,72.3,61.6,66.2,60.3,52.9,87,68,45,30.02,29.95,9,1,11,0.02
2013-8-23,85.9,71.4,59.8,61.4,55.4,47.5,81,59,41,30.03,29.96,14,2,14,0.00
2013-8-24,83.8,69.9,57.4,66.4,60.3,52.9,90,73,47,30.04,29.94,12,1,12,0.00
2013-8-25,77.8,68.9,62.5,66.9,63.3,59.8,94,83,61,29.96,29.88,20,4,20,0.07
2013-8-26,79.5,70.0,63.0,66.6,63.3,59.6,94,80,62,29.97,29.92,14,2,14,0.00
2013-8-27,77.8,69.1,63.3,67.1,64.1,61.1,94,85,68,29.96,29.92,14,2,14,0.00
2013-8-28,72.8,72.8,72.8,64.8,64.8,64.8,76,76,76,29.93,29.93,1,1,1,0.00
2013-8-29,72.8,72.8,72.8,64.8,64.8,64.8,76,76,76,29.93,29.93,1,1,1,0.00
2013-8-30,72.8,72.8,72.8,64.8,64.8,64.8,76,76,76,29.93,29.93,1,1,1,0.00
2013-8-31,72.8,72.8,72.8,64.8,64.8,64.8,76,76,76,29.93,29.93,1,1,1,0.00
2013-9-1,72.8,72.8,72.8,64.8,64.8,64.8,76,76,76,29.93,29.93,1,1,1,0.00
2013-9-2,72.8,70.8,60.5,64.8,63.3,55.6,85,77,76,30.13,29.93,3,1,3,0.00
2013-9-3,64.4,63.1,62.5,57.8,57.4,56.9,82,82,81,30.12,30.12,1,0,2,0.00
2013-9-4,86.0,71.2,60.4,62.0,56.8,50.9,88,63,37,30.18,30.09,6,1,9,0.00
2013-9-5,85.6,71.2,58.7,65.4,56.2,49.5,87,61,38,30.11,30.00,11,2,11,0.00
2013-9-6,84.9,72.1,60.6,67.1,59.9,53.9,87,67,45,30.01,29.95,11,2,11,0.00
2013-9-7,85.4,69.5,60.4,66.5,60.7,56.5,91,76,45,30.08,30.01,8,1,8,0.10
2013-9-8,84.3,70.6,58.2,68.9,62.3,55.6,94,77,47,30.14,30.07,10,1,10,0.00
2013-9-9,78.6,69.2,63.4,70.0,63.5,56.3,95,83,63,30.12,30.06,14,2,14,0.07
2013-9-10,74.8,66.4,61.9,61.1,59.6,55.8,92,79,55,30.12,30.06,14,2,15,0.40
2013-9-11,62.6,62.2,59.0,60.9,60.4,57.3,95,94,92,30.08,30.06,7,2,7,0.14
2013-9-12,62.6,62.6,62.6,60.8,60.8,60.8,94,94,94,30.06,30.06,2,2,6,0.00
2013-9-13,62.6,62.6,62.6,60.8,60.8,60.8,94,94,94,30.06,30.06,2,2,6,0.00
2013-9-14,62.6,62.6,62.6,60.8,60.8,60.8,94,94,94,30.06,30.06,2,2,6,0.00
2013-9-15,62.6,62.6,62.6,60.8,60.8,60.8,94,94,94,30.06,30.06,2,2,6,0.00
2013-9-16,71.7,61.4,58.9,60.8,51.8,-99.9,94,79,61,30.06,29.94,12,-12,12,0.06
2013-9-17,68.9,62.2,52.5,59.9,55.8,49.8,92,81,53,29.95,29.88,16,2,16,0.00
2013-9-18,72.5,58.7,51.4,58.8,53.1,49.1,94,83,56,30.00,29.94,7,2,15,0.00
2013-9-19,75.3,63.8,56.7,63.1,57.6,51.2,93,81,54,30.01,29.91,14,2,14,0.01
2013-9-20,78.3,65.2,54.7,60.3,56.0,51.5,92,74,47,30.10,30.00,11,1,11,0.00
2013-9-21,79.0,66.5,57.0,61.4,56.8,52.9,92,73,45,30.17,30.11,9,2,12,0.00
2013-9-22,76.2,65.8,55.7,57.2,53.2,47.4,85,66,39,30.20,30.15,13,1,13,0.00
2013-9-23,73.2,61.6,52.1,57.3,51.9,46.8,92,71,51,30.21,30.16,11,2,11,0.00
2013-9-24,76.5,63.2,49.9,60.4,54.1,48.1,95,75,42,30.19,30.12,10,1,10,0.01
2013-9-25,73.3,71.1,54.7,59.5,58.6,51.8,91,65,62,30.15,30.12,3,2,8,0.00
2013-9-26,76.9,63.6,51.6,62.0,56.6,49.6,94,79,52,30.16,30.07,6,1,7,0.01
2013-9-27,77.5,64.4,55.5,63.9,57.5,53.7,95,80,54,30.10,30.06,10,1,10,0.01
2013-9-28,78.3,64.8,54.6,64.8,57.8,52.0,93,80,52,30.09,30.02,10,2,10,0.00
2013-9-29,73.8,66.8,61.8,66.4,61.8,57.8,93,84,74,30.04,29.89,22,4,23,0.95
2013-9-30,70.9,63.8,57.4,64.5,59.8,53.7,96,87,64,29.91,29.85,19,2,19,2.02
2013-10-1,72.0,62.0,54.5,59.5,55.9,51.9,94,81,60,30.01,29.91,13,1,13,0.00
2013-10-2,73.8,62.2,52.2,61.4,55.6,50.2,94,80,56,30.15,29.99,10,1,10,0.01
2013-10-3,70.7,61.3,54.8,58.3,53.4,50.1,91,76,53,30.27,30.15,10,1,10,0.00
2013-10-4,69.2,60.7,52.0,57.7,53.3,48.7,90,77,62,30.29,30.24,8,1,8,0.01
2013-10-5,65.0,59.8,55.8,60.7,55.9,52.0,95,87,76,30.26,30.17,19,3,19,0.73
2013-10-6,72.2,63.6,58.4,63.3,59.6,57.0,95,87,68,30.17,30.13,18,3,18,0.12
2013-10-7,71.2,62.1,57.0,61.5,58.0,54.1,95,87,63,30.20,30.14,9,1,9,0.08
2013-10-8,67.2,59.4,56.1,61.0,56.0,54.0,94,89,75,30.22,30.16,14,2,14,0.16
2013-10-9,65.7,57.6,51.2,58.5,54.5,49.2,95,90,72,30.22,30.17,10,1,10,0.07
2013-10-10,65.0,56.9,50.4,59.8,54.6,48.9,96,92,74,30.20,30.08,20,2,20,0.42
2013-10-11,67.3,59.8,53.6,59.7,55.9,51.0,94,87,72,30.19,30.06,9,1,9,0.05
2013-10-12,68.8,61.9,53.1,62.6,57.4,50.2,93,85,75,30.24,30.15,23,4,25,0.03
2013-10-13,71.7,61.3,52.0,58.7,54.5,49.0,94,80,57,30.26,30.23,10,2,10,0.00
2013-10-14,74.8,62.1,52.0,58.3,52.9,48.2,93,74,43,30.25,30.20,6,1,6,0.00
2013-10-15,69.1,60.4,53.4,58.3,53.5,49.7,92,79,54,30.21,30.09,6,1,6,0.00
2013-10-16,70.0,63.0,54.1,62.2,57.6,48.8,95,83,65,30.09,29.98,13,2,13,0.14
2013-10-17,71.5,60.0,49.4,55.4,44.8,34.1,91,61,29,30.15,30.06,7,1,7,0.00
2013-10-18,70.5,58.6,48.0,59.5,52.2,44.6,94,80,56,30.22,30.15,7,1,7,0.00
2013-10-19,71.6,60.3,53.7,56.9,53.3,45.5,95,80,41,30.29,30.19,11,1,11,0.01
2013-10-20,71.9,62.8,54.6,60.3,54.6,48.3,88,75,62,30.32,30.28,13,2,13,0.00
2013-10-21,71.7,64.7,57.0,62.0,56.8,53.5,89,76,64,30.28,30.24,14,1,14,0.00
2013-10-22,74.2,63.1,54.2,63.3,56.5,50.2,92,80,55,30.26,30.21,7,1,7,0.00
2013-10-23,73.4,64.2,56.4,62.4,57.0,52.2,91,78,59,30.23,30.19,13,1,13,0.00
2013-10-24,68.8,62.0,58.5,61.2,57.4,52.6,91,85,70,30.24,30.19,13,1,13,0.02
2013-10-25,71.6,62.9,57.0,64.7,59.4,55.0,94,88,77,30.25,30.22,7,1,7,0.01
2013-10-26,72.8,62.8,55.4,64.9,58.9,53.4,96,88,71,30.28,30.24,7,1,7,0.01
2013-10-27,69.3,59.4,52.2,60.8,56.5,50.6,96,91,73,30.31,30.25,6,1,6,0.02
2013-10-28,72.0,62.1,54.3,62.4,57.7,52.6,95,86,66,30.26,30.18,7,1,7,0.00
2013-10-29,73.0,62.1,52.1,64.5,58.4,49.8,96,88,74,30.18,30.11,10,2,10,0.02
2013-10-30,70.7,60.3,52.5,60.7,56.3,50.2,97,87,64,30.17,30.10,10,1,10,0.02
2013-10-31,71.2,59.9,52.5,59.2,54.7,50.8,96,84,57,30.25,30.16,10,1,10,0.01
2013-11-1,70.0,60.2,54.4,57.3,53.7,50.4,92,80,59,30.26,30.22,11,1,11,0.01
2013-11-2,67.1,60.3,53.5,58.8,55.8,50.0,93,86,72,30.23,30.16,15,2,15,0.04
2013-11-3,65.8,61.3,55.9,59.8,56.8,53.9,95,85,75,30.20,30.10,19,2,19,0.18
2013-11-4,64.5,60.6,56.2,58.7,56.0,53.2,94,85,68,30.11,29.83,29,4,29,0.31
2013-11-5,61.2,55.3,51.1,58.2,51.9,48.6,95,89,73,29.91,29.79,19,2,19,2.12
2013-11-6,63.9,56.6,49.5,54.6,49.9,45.0,94,79,67,30.12,29.90,16,2,16,0.00
2013-11-7,68.0,58.2,46.9,58.1,52.7,43.4,93,82,62,30.24,30.11,16,2,19,0.00
2013-11-8,69.5,60.9,55.1,60.4,55.6,51.5,95,83,70,30.24,30.19,13,2,13,0.00
2013-11-9,65.8,60.2,56.8,59.7,56.3,53.7,92,87,77,30.19,30.14,17,3,20,0.00
2013-11-10,59.8,53.4,45.7,54.1,50.5,42.8,95,90,74,30.16,29.89,23,2,23,0.51
2013-11-11,51.4,46.5,42.3,48.5,43.6,40.7,96,90,80,30.07,29.82,18,2,18,0.35
2013-11-12,59.7,50.4,41.4,51.8,47.1,39.3,95,89,69,30.22,30.05,11,1,11,0.19
2013-11-13,61.7,55.6,48.7,54.1,49.4,44.7,94,80,65,30.22,30.18,11,1,11,0.01
2013-11-14,66.5,56.6,50.4,55.0,50.5,44.7,90,81,56,30.22,30.14,7,1,7,0.00
2013-11-15,57.2,52.1,49.8,52.6,49.7,47.3,95,92,80,30.24,30.11,15,2,15,0.60
2013-11-16,60.1,53.9,49.2,51.3,47.8,45.8,90,80,66,30.30,30.24,10,1,10,0.00
2013-11-17,64.8,54.9,48.7,52.6,48.6,45.8,93,80,59,30.33,30.28,14,2,14,0.00
2013-11-18,58.9,53.6,48.0,51.0,48.4,45.2,93,83,69,30.28,30.05,27,4,28,0.01
2013-11-19,56.5,50.9,47.7,52.6,47.7,44.4,94,89,73,30.10,29.89,26,7,28,2.46
2013-11-20,54.6,47.5,40.3,52.6,45.3,38.7,96,92,81,30.12,29.81,33,2,36,0.75
2013-11-21,50.2,45.2,43.5,44.0,41.2,37.1,94,86,73,30.11,29.99,21,2,21,0.73
2013-11-22,49.4,43.1,40.8,43.2,40.6,38.9,94,91,72,30.01,29.90,19,2,19,0.62
2013-11-23,43.0,40.3,38.9,41.7,38.5,37.3,95,93,90,29.97,29.90,11,4,15,1.44
2013-11-24,50.0,42.5,38.6,42.8,38.9,34.4,98,87,63,30.10,29.97,17,2,17,0.00
2013-11-25,53.3,41.7,31.6,43.1,33.9,22.7,87,74,60,30.19,30.10,17,2,17,0.00
2013-11-26,40.3,32.6,28.2,30.6,26.1,23.6,87,77,66,30.29,30.17,18,2,18,0.00
2013-11-27,38.7,33.5,29.2,31.1,27.6,25.0,92,79,62,30.50,30.26,17,3,17,0.00
2013-11-28,39.9,36.0,30.5,36.1,30.8,-99.9,92,83,73,30.51,30.46,17,3,17,0.09
2013-11-29,53.1,42.3,35.2,42.1,35.9,31.2,92,79,59,30.50,30.37,11,2,11,0.00
2013-11-30,51.3,42.9,32.1,39.7,34.7,29.2,91,74,60,30.37,30.18,10,2,10,0.00
2013-12-1,51.7,49.9,45.5,40.2,38.3,35.2,70,64,60,30.18,30.09,14,5,14,0.02
2013-12-2,62.1,53.2,47.9,51.3,45.3,40.1,91,75,58,30.33,30.13,16,2,16,0.01
2013-12-3,61.4,50.4,43.0,44.0,39.7,33.5,82,67,47,30.42,30.32,14,2,14,0.00
2013-12-4,54.7,43.4,33.9,46.6,38.1,31.8,94,82,63,30.44,30.38,10,1,10,0.00
2013-12-5,53.5,39.2,31.1,42.8,33.7,28.9,99,82,50,30.41,30.37,6,0,6,0.01
2013-12-6,49.9,41.9,30.7,40.5,32.6,-99.9,95,77,66,30.37,30.24,6,-34,6,0.00
2013-12-7,55.7,45.7,35.6,43.5,37.9,31.2,92,75,51,30.47,30.26,10,1,10,0.00
2013-12-8,55.2,46.6,37.3,45.6,40.9,34.5,93,81,63,30.52,30.47,13,2,13,0.01
2013-12-9,55.6,48.5,40.3,46.8,43.5,35.5,89,83,69,30.51,30.46,12,1,12,0.00
2013-12-10,57.3,46.7,37.5,45.8,39.4,33.2,88,76,61,30.56,30.50,9,1,9,0.00
2013-12-11,56.4,46.5,38.9,48.9,41.3,34.5,94,82,72,30.59,30.55,9,1,9,0.00
2013-12-12,53.6,42.9,36.1,46.5,39.8,33.1,96,89,74,30.55,30.50,9,1,9,0.02
2013-12-13,51.7,44.1,35.8,44.1,38.4,31.4,92,80,69,30.50,30.46,10,1,10,0.00
2013-12-14,54.0,43.9,33.1,44.4,38.9,29.6,94,83,63,30.56,30.48,7,1,7,0.00
2013-12-15,51.2,44.8,37.2,45.7,41.2,34.0,94,87,71,30.60,30.54,11,1,11,0.08
2013-12-16,54.9,42.8,34.3,45.9,35.8,24.5,94,77,46,30.65,30.60,6,1,6,0.00
2013-12-17,56.1,45.2,35.6,43.8,32.1,25.1,77,61,38,30.65,30.55,6,2,6,0.00
2013-12-18,52.7,40.9,33.1,44.6,33.0,25.1,91,74,58,30.55,30.51,5,1,5,0.00
2013-12-19,51.5,43.6,33.6,42.7,37.3,29.0,92,79,67,30.51,30.45,15,3,15,0.00
2013-12-20,49.5,46.5,43.3,47.6,43.8,38.9,94,90,78,30.55,30.43,21,5,22,0.22
2013-12-21,57.5,49.9,42.7,51.1,46.3,40.4,95,88,74,30.61,30.53,7,1,7,0.00
2013-12-22,52.7,46.1,40.7,48.5,43.2,38.0,96,90,74,30.60,30.49,5,0,5,0.01
2013-12-23,53.9,45.7,35.8,44.2,40.0,32.6,96,81,61,30.49,30.43,10,1,10,0.01
2013-12-24,53.5,43.5,36.9,45.9,38.8,33.1,94,84,71,30.43,30.35,8,1,8,0.00
2013-12-25,51.7,48.2,41.9,48.0,44.2,38.1,94,86,81,30.35,30.07,31,9,32,0.15
2013-12-26,52.3,48.0,43.7,49.7,45.0,40.3,93,89,83,30.08,29.88,44,8,44,2.21
2013-12-27,50.0,43.7,38.6,42.9,40.0,36.2,93,87,75,30.22,29.92,9,1,9,0.01
2013-12-28,55.7,46.3,39.2,44.9,41.4,36.9,93,84,64,30.33,30.21,10,2,10,0.01
2013-12-29,55.0,49.3,44.3,49.6,45.9,41.3,98,88,78,30.35,30.27,15,2,15,0.00
2013-12-30,48.3,45.0,42.3,45.8,43.3,40.8,96,94,87,30.37,30.31,14,1,14,0.85
2013-12-31,52.5,46.7,40.1,46.0,41.4,33.4,96,82,65,30.35,30.28,7,-2,7,0.01
2014-1-1,53.2,43.9,35.0,43.7,38.6,32.5,93,82,66,30.36,30.28,5,1,5,0.00
2014-1-2,51.6,43.8,32.6,45.1,39.7,30.1,95,86,63,30.35,30.31,16,2,16,0.02